This is the latest recevied weather packets stored in our database for station/object SV1RVP-13. If no packets are shown the sender has not sent any weather packets the latest 10 day(s).
| Time | Temp. | Humidity | Pressure | Rain* | Wind** | Luminosity | Snow |
|---|---|---|---|---|---|---|---|
| 1788106716 | 29.44° C | 66% | 1013.9 hPa | 0 mm | - | - | - |
| 1788106135 | 30° C | 63% | 1014 hPa | 0 mm | - | - | - |
| 1788105516 | 30° C | 61% | 1013.9 hPa | 0 mm | - | - | - |
| 1788104913 | 30° C | 60% | 1013.7 hPa | 0 mm | - | - | - |
| 1788104307 | 30.56° C | 59% | 1013.8 hPa | 0 mm | - | - | - |
| 1788103712 | 30.56° C | 58% | 1013.8 hPa | 0 mm | - | - | - |
| 1788103108 | 31.11° C | 57% | 1013.6 hPa | 0 mm | - | - | - |
| 1788102517 | 31.11° C | 55% | 1013.5 hPa | 0 mm | - | - | - |
| 1788101911 | 31.67° C | 53% | 1013.7 hPa | 0 mm | - | - | - |
| 1788101326 | 31.67° C | 53% | 1013.5 hPa | 0 mm | - | - | - |
| 1788100723 | 31.67° C | 53% | 1013.5 hPa | 0 mm | - | - | - |
| 1788100115 | 32.22° C | 52% | 1013.5 hPa | 0 mm | - | - | - |
| 1788099512 | 31.67° C | 51% | 1013.4 hPa | 0 mm | - | - | - |
| 1788098936 | 31.67° C | 54% | 1013.5 hPa | 0 mm | - | - | - |
| 1788098330 | 31.67° C | 54% | 1013.5 hPa | 0 mm | - | - | - |
| 1788097720 | 31.67° C | 53% | 1013.6 hPa | 0 mm | - | - | - |
| 1788097121 | 31.11° C | 52% | 1013.6 hPa | 0 mm | - | - | - |
| 1788096516 | 31.67° C | 50% | 1013.6 hPa | 0 mm | - | - | - |
| 1788095915 | 31.67° C | 48% | 1013.6 hPa | 0 mm | - | - | - |
| 1788095305 | 31.67° C | 47% | 1013.6 hPa | 0 mm | - | - | - |
| 1788094725 | 32.22° C | 47% | 1013.5 hPa | 0 mm | - | - | - |
| 1788094107 | 32.22° C | 46% | 1013.6 hPa | 0 mm | - | - | - |
| 1788093527 | 32.78° C | 45% | 1013.7 hPa | 0 mm | - | - | - |
| 1788092919 | 32.78° C | 45% | 1013.8 hPa | 0 mm | - | - | - |
| 1788092316 | 32.78° C | 44% | 1014 hPa | 0 mm | - | - | - |
* Rain since midnight (hover to see other rain measurements)
** Current wind speed in m/s (hover to see current wind gust speed)